User: anonymous   Login
Location: Beuerbach
(48.1459°N, 10.9174°E)
Time: 21:49:19
(UTC+00:00)
Language:

Helios 1A Rocket - Orbit

View from above orbital plane
View from above orbital plane
View from above satellite
View from above satellite

Ground track
Ground track

The orbit data is extracted from the following two-line orbital elements,

1 23608U 95033D   24197.62348042  .00014844  00000-0  86438-3 0  9994
2 23608  98.2550 323.6864 0015111 322.0022  38.0139 15.12043340574814
Epoch (UTC): 15 July 2024 14:57:48
Eccentricity: 0.0015111
inclination: 98.2550°
perigee height: 519 km
apogee height: 540 km
right ascension of ascending node: 323.6864°
argument of perigee: 322.0022°
revolutions per day: 15.12043340
mean anomaly at epoch: 38.0139°
orbit number at epoch: 57481

The dashed part of the orbit path shows where the satellite is in the earth's shadow,  

DLR